Find Starlink 32875

NORAD ID: 62951 Int'l Des: 2025-029 Owner: SPXS Country: US Constellation: starlink operational
LEOCIRCULAR

Current View

Loading 3D Globe...

About Starlink 32875

Starlink 32875 (NORAD 62951) is a starlink constellation satellite (v2 mini) launched Feb 11, 2025 by SPXS of US. It operates in LEO, CIRCULAR orbit with a mass of 730.00 kg.

About Starlink 32875

Description loading...

Upcoming Passes

Passes for default location (London). Set your location on the main map for personalized predictions.

Altitude History

Loading altitude history...

Two-Line Element Set

1 62951U 25029D 26170.56307109 .00021443 00000-0 64420-3 0 9991
2 62951 53.1589 115.8109 0001083 103.1367 256.9756 15.34388266 76979
Epoch: Jun 19, 2026 • Age: 7 hours

Current Status

Altitude 462.5 km
Velocity 7.64 km/s
Sub-Earth Point 10.87°N, 70.82°E
Launch Date Feb 11, 2025
Age 1.3 years
Type internet

Technical Details

Classification Payload
Mass 730.00 kg
Dry Mass 700.00 kg
Total Mass 730.00 kg
Length 0.30 m
Diameter 4.10 m
Span 29.00 m
Shape Box + pan
Manufacturer SPXS
Bus Type Starlink V2M
Phase Status In Orbit
Owner/State SPXS/US

Most Searched